Location: Edemissen
(51.7689°N, 9.8634°E)
Time: 22:04:16
(UTC+00:00)

Cosmos 1461 - Visible Passes

Search period start: 13 September 2024 00:00
Search period end: 23 September 2024 00:00
Orbit: 493 x 569 km, 65.0° (Epoch: 13 September)

Date Brightness Start Highest point End Pass type
(mag) Time Alt. Az. Time Alt. Az. Time Alt. Az.
13 Sep 4.3 01:44:40 29° N 01:44:40 29° N 01:47:12 10° NNE visible
13 Sep 5.1 03:20:46 10° NW 03:22:42 13° NNW 03:24:39 10° NNE visible
14 Sep 4.6 01:34:08 25° N 01:34:08 25° N 01:36:21 10° NNE visible
14 Sep 5.2 03:10:07 10° NW 03:11:57 13° NNW 03:13:48 10° NNE visible
15 Sep 4.9 01:23:32 22° N 01:23:32 22° N 01:25:26 10° NNE visible
15 Sep 5.2 02:59:24 10° NW 03:01:09 13° NNW 03:02:54 10° NNE visible
16 Sep 5.1 01:12:51 20° N 01:12:51 20° N 01:14:27 10° NNE visible
16 Sep 5.3 02:48:36 10° NW 02:50:16 12° N 02:51:56 10° NNE visible
17 Sep 5.4 01:02:07 17° NNE 01:02:07 17° NNE 01:03:23 10° NNE visible
17 Sep 5.3 02:37:44 10° NNW 02:39:19 12° N 02:40:55 10° NNE visible
17 Sep 5.3 04:16:43 10° NNW 04:18:47 14° NNE 04:20:53 10° NE visible
18 Sep 5.6 00:51:18 15° NNE 00:51:18 15° NNE 00:52:16 10° NNE visible
18 Sep 5.4 02:26:48 10° NNW 02:28:19 12° N 02:29:50 10° NNE visible
18 Sep 5.3 04:05:36 10° NNW 04:07:46 14° NNE 04:09:58 10° NE visible
19 Sep 5.8 00:40:28 13° NNE 00:40:28 13° NNE 00:41:05 10° NNE visible
19 Sep 5.4 02:15:47 10° NNW 02:17:15 12° N 02:18:42 10° NNE visible
19 Sep 5.3 03:54:25 10° NNW 03:56:41 15° NNE 03:58:59 10° NE visible
20 Sep 6.0 00:29:32 11° NNE 00:29:32 11° NNE 00:29:51 10° NNE visible
20 Sep 5.5 02:04:49 10° NNW 02:06:07 12° N 02:07:30 10° NNE visible
20 Sep 5.3 03:43:10 10° NNW 03:45:32 16° NNE 03:47:55 10° ENE visible
21 Sep 5.5 01:53:51 11° NNW 01:54:55 12° N 01:56:16 10° NNE visible
21 Sep 5.4 03:31:51 10° NNW 03:34:19 16° NNE 03:36:48 10° ENE visible
22 Sep 5.6 01:42:51 11° NNW 01:43:39 11° N 01:44:59 10° NNE visible
22 Sep 5.4 03:20:28 10° NNW 03:23:01 17° NNE 03:25:36 10° ENE visible
